Probability
19 39 71 68 74 74 68 68 71 77 77 77 74 74 77 74 74 74 74 81 81 74 74 77 77 87 81 81 71 71 71 74 71 71 61 58 58 55 52 45 39 39 61
19 45 71 74 74 74 68 68 71 74 77 77 77 77 77 74 77 77 74 77 81 74 71 77 77 81 65 74 65 65 68 68 68 65 61 58 55 61 52 45 39 35 55
23 48 61 71 74 74 74 74 77 74 77 74 77 74 74 71 71 74 71 74 77 74 65 71 65 65 55 55 58 68 71 68 61 68 52 35 32 52 52 48 48 55 52
29 42 52 74 77 77 74 74 74 74 74 71 71 71 71 74 74 68 68 74 65 68 65 61 61 55 61 65 55 55 74 65 52 45 23 19 23 45 48 48 52 48 48
32 42 52 74 74 77 77 77 74 74 68 65 68 68 74 74 74 71 65 68 58 61 65 55 55 55 58 55 52 58 71 61 48 32 19 16 26 35 42 52 42 39 39
32 42 58 71 71 74 77 77 74 68 68 61 61 65 74 77 74 74 68 71 61 71 55 52 61 61 58 55 58 61 55 39 29 19 16 16 26 42 42 55 45 39 45
39 39 55 74 71 68 68 71 71 68 61 61 65 65 74 71 77 71 68 68 68 68 55 58 65 58 55 55 52 45 45 35 16 10 13 13 26 45 42 48 45 39 39
35 45 58 68 68 71 68 68 68 61 65 65 71 74 71 71 65 65 68 68 58 65 61 52 55 48 55 58 61 52 48 35 10 6 6 13 29 35 42 45 35 35 42
35 45 48 58 58 65 68 74 65 61 65 71 71 71 71 68 55 48 58 58 58 61 58 55 58 58 58 65 65 48 55 39 13 6 3 13 29 35 32 39 35 35 39
26 39 39 39 55 52 58 68 61 61 61 65 65 65 61 58 48 42 48 65 61 55 55 58 58 55 55 58 65 55 48 29 10 3 6 13 32 32 39 39 42 39 39
26 39 39 35 35 39 42 61 58 58 58 58 52 58 48 35 35 39 42 48 52 52 52 52 55 55 52 45 52 55 42 19 10 3 6 13 29 29 32 42 42 42 45
19 29 35 35 32 32 39 39 45 45 42 42 39 45 32 26 26 29 42 48 52 48 55 48 48 42 42 39 35 42 16 13 6 10 10 26 29 26 29 39 42 45 45
19 19 32 35 32 29 29 26 26 19 29 32 32 32 29 23 19 29 23 26 32 35 32 32 29 26 26 16 19 10 10 10 3 6 10 23 29 29 29 39 39 42 42
16 19 26 32 32 26 19 26 23 23 26 26 23 23 23 16 19 23 19 16 19 16 16 13 23 13 10 10 6 6 6 6 3 0 6 19 32 39 35 32 35 39 39
23 16 13 26 19 16 13 19 23 19 23 19 16 16 16 19 19 19 16 13 13 3 3 6 10 10 6 6 6 6 6 6 6 3 3 16 29 32 32 35 39 39 39
26 19 16 13 13 13 10 16 13 13 16 16 13 19 19 16 16 19 16 16 13 10 10 10 10 10 10 6 6 6 6 6 6 3 6 16 32 42 32 29 26 29 29
26 23 19 16 13 13 6 6 10 10 10 16 13 13 16 13 16 16 16 16 16 13 10 6 10 3 10 10 6 6 6 6 6 6 10 16 13 23 32 32 35 29 32
19 26 16 19 13 10 10 6 10 13 10 13 13 10 13 16 16 13 13 16 10 10 13 6 6 10 6 10 6 3 3 3 6 6 10 13 13 10 19 29 29 32 39
13 16 16 16 16 13 10 10 13 10 16 16 13 10 16 13 16 13 10 13 6 13 13 6 6 6 6 6 6 6 3 3 3 3 6 10 10 10 13 19 29 32 32
16 13 16 16 16 13 10 10 10 10 13 13 13 6 13 13 13 13 10 6 3 10 13 6 6 3 6 3 6 6 3 3 3 3 6 6 6 3 6 10 19 29 32
13 13 19 13 10 13 13 13 13 13 13 13 10 10 6 6 13 13 13 6 6 10 10 3 0 0 0 0 3 3 0 0 0 3 3 3 3 3 6 6 10 10 19
13 16 13 10 10 10 10 16 13 13 6 6 3 6 3 3 6 10 3 10 10 10 10 3 0 0 0 0 0 0 3 0 0 0 6 3 3 3 3 3 6 6 10
13 13 13 6 6 10 10 6 10 6 0 0 3 0 3 6 6 3 3 6 3 6 6 3 3 0 0 0 0 0 0 3 0 0 0 3 3 3 3 3 3 3 6
6 13 13 10 10 6 10 6 6 3 3 3 0 6 6 10 3 3 3 3 3 3 3 3 0 3 3 0 0 0 0 0 0 0 0 0 3 3 3 3 3 6 6
6 10 13 10 10 6 6 3 3 3 3 3 0 0 10 10 3 3 3 3 3 3 3 3 3 3 3 0 0 0 0 0 0 0 0 0 0 3 3 3 3 3 3
16 6 6 6 10 10 6 3 3 3 3 3 3 3 3 3 3 3 3 3 3 3 3 3 3 3 3 3 0 0 0 0 0 0 0 0 0 3 3 3 3 3 3
Height
5882 5881 5880 5880 5879 5878 5877 5877 5876 5876 5876 5876 5875 5875 5875 5874 5874 5874 5874 5874 5874 5874 5874 5874 5874 5873 5873 5873 5873 5873 5874 5874 5875 5875 5875 5875 5876 5877 5878 5878 5879 5879 5880
5882 5881 5881 5880 5879 5879 5878 5877 5877 5876 5876 5876 5875 5875 5875 5874 5874 5874 5874 5874 5874 5874 5874 5873 5873 5873 5873 5873 5873 5873 5873 5874 5874 5874 5874 5875 5875 5876 5878 5878 5878 5879 5879
5883 5882 5881 5880 5880 5879 5878 5877 5877 5877 5876 5876 5875 5875 5875 5874 5874 5874 5874 5874 5873 5873 5873 5873 5873 5872 5872 5872 5872 5872 5873 5873 5873 5873 5873 5874 5874 5876 5877 5878 5878 5878 5879
5883 5882 5881 5880 5879 5879 5878 5877 5877 5877 5876 5876 5875 5875 5875 5874 5874 5874 5873 5873 5873 5873 5873 5873 5872 5872 5872 5872 5872 5872 5872 5872 5872 5873 5873 5872 5874 5875 5876 5877 5877 5878 5879
5883 5882 5881 5880 5879 5878 5878 5877 5877 5876 5876 5876 5875 5874 5874 5874 5874 5873 5873 5873 5873 5872 5872 5872 5872 5872 5871 5871 5871 5871 5871 5871 5871 5872 5872 5873 5873 5874 5875 5876 5877 5878 5879
5882 5882 5881 5880 5879 5878 5878 5877 5877 5876 5876 5875 5875 5874 5874 5874 5873 5873 5872 5872 5872 5872 5872 5871 5871 5871 5871 5870 5870 5870 5869 5869 5870 5871 5872 5872 5873 5874 5875 5875 5876 5877 5878
5882 5881 5881 5880 5879 5878 5878 5877 5877 5876 5875 5875 5874 5874 5873 5873 5872 5872 5872 5871 5871 5871 5871 5871 5870 5870 5870 5869 5869 5869 5868 5868 5868 5869 5870 5872 5873 5873 5874 5875 5876 5877 5878
5882 5881 5880 5879 5879 5878 5877 5877 5876 5875 5875 5874 5873 5873 5872 5872 5871 5871 5871 5870 5870 5870 5870 5869 5869 5869 5869 5869 5868 5868 5867 5867 5868 5869 5869 5871 5872 5873 5874 5874 5876 5877 5878
5881 5880 5880 5879 5878 5878 5877 5876 5876 5875 5874 5873 5872 5872 5871 5871 5870 5870 5869 5869 5869 5869 5868 5868 5868 5868 5868 5868 5867 5867 5867 5867 5867 5868 5869 5870 5871 5872 5873 5874 5875 5876 5877
5881 5880 5879 5878 5878 5877 5876 5876 5875 5874 5874 5872 5871 5871 5870 5870 5869 5868 5868 5867 5867 5867 5867 5867 5867 5867 5867 5867 5867 5867 5867 5867 5867 5867 5868 5869 5870 5871 5872 5873 5874 5875 5875
5880 5879 5879 5878 5877 5877 5876 5875 5875 5874 5873 5872 5870 5869 5869 5868 5868 5867 5866 5866 5866 5866 5865 5865 5865 5865 5865 5865 5866 5866 5866 5866 5866 5867 5867 5868 5869 5870 5871 5872 5873 5873 5874
5880 5879 5878 5877 5877 5876 5875 5874 5874 5873 5872 5871 5869 5868 5867 5867 5866 5865 5865 5865 5864 5864 5864 5864 5863 5864 5864 5864 5864 5864 5865 5865 5866 5866 5867 5867 5868 5869 5869 5870 5871 5872 5873
5879 5878 5877 5876 5876 5875 5874 5873 5872 5871 5870 5869 5868 5867 5866 5865 5864 5864 5863 5863 5863 5862 5862 5862 5862 5862 5863 5863 5863 5863 5863 5864 5864 5865 5865 5866 5867 5867 5868 5869 5869 5870 5871
5878 5877 5876 5875 5874 5873 5872 5872 5871 5870 5869 5868 5867 5866 5864 5863 5862 5862 5862 5861 5861 5861 5861 5861 5861 5861 5861 5861 5862 5862 5862 5863 5863 5863 5864 5864 5865 5865 5866 5867 5867 5867 5869
5876 5875 5874 5874 5873 5872 5871 5870 5869 5868 5867 5866 5865 5864 5863 5862 5861 5860 5860 5859 5859 5859 5859 5859 5859 5859 5859 5859 5860 5860 5860 5861 5861 5862 5862 5863 5863 5863 5864 5864 5865 5866 5866
5874 5873 5872 5872 5871 5870 5870 5869 5868 5866 5865 5864 5863 5862 5861 5860 5859 5858 5858 5857 5857 5857 5857 5857 5857 5856 5857 5857 5857 5857 5858 5858 5859 5860 5860 5860 5861 5861 5861 5862 5862 5863 5864
5872 5871 5870 5870 5869 5868 5868 5867 5866 5865 5863 5862 5861 5860 5859 5858 5857 5856 5856 5855 5855 5854 5854 5854 5854 5854 5854 5854 5854 5855 5855 5856 5856 5857 5857 5857 5858 5858 5858 5859 5859 5860 5861
5870 5869 5868 5868 5867 5866 5866 5865 5864 5863 5862 5860 5859 5858 5857 5856 5855 5854 5853 5853 5852 5852 5852 5851 5851 5851 5852 5851 5851 5852 5852 5853 5853 5854 5854 5854 5854 5855 5855 5855 5856 5857 5858
5869 5868 5866 5865 5865 5864 5863 5863 5862 5861 5860 5859 5857 5856 5855 5854 5853 5852 5851 5850 5849 5849 5849 5848 5848 5848 5848 5848 5848 5848 5849 5849 5850 5850 5850 5851 5851 5851 5851 5852 5852 5853 5854
5866 5865 5864 5863 5862 5862 5861 5860 5859 5858 5857 5856 5855 5854 5853 5852 5851 5850 5849 5847 5846 5846 5845 5845 5844 5844 5845 5845 5845 5845 5845 5845 5846 5846 5847 5847 5847 5847 5847 5848 5849 5849 5850
5864 5863 5862 5861 5860 5859 5858 5858 5857 5856 5854 5853 5852 5851 5850 5849 5847 5846 5845 5844 5843 5842 5841 5841 5840 5840 5840 5840 5841 5841 5841 5841 5842 5842 5842 5843 5843 5843 5843 5844 5844 5845 5846
5862 5860 5860 5858 5857 5857 5855 5854 5853 5852 5851 5850 5849 5848 5847 5846 5845 5843 5842 5841 5840 5838 5837 5837 5836 5836 5836 5836 5836 5836 5837 5837 5837 5837 5838 5838 5838 5839 5839 5839 5839 5840 5841
5859 5858 5857 5856 5855 5854 5852 5851 5850 5849 5848 5847 5845 5844 5844 5843 5842 5840 5838 5837 5836 5835 5834 5833 5832 5832 5831 5831 5831 5832 5832 5832 5832 5833 5833 5833 5833 5834 5834 5834 5835 5835 5836
5856 5854 5854 5853 5852 5850 5849 5848 5847 5846 5845 5843 5842 5841 5840 5839 5838 5836 5835 5833 5832 5830 5829 5828 5828 5827 5826 5826 5826 5826 5827 5827 5827 5828 5828 5828 5828 5829 5829 5829 5830 5830 5830
5852 5851 5850 5849 5848 5847 5846 5845 5844 5842 5841 5840 5838 5837 5836 5835 5834 5832 5831 5829 5828 5826 5825 5824 5823 5822 5822 5821 5821 5821 5821 5821 5822 5823 5823 5823 5823 5823 5824 5824 5825 5824 5824
5848 5847 5846 5845 5845 5844 5843 5841 5840 5838 5837 5836 5834 5833 5832 5831 5830 5828 5827 5825 5824 5822 5820 5819 5818 5817 5816 5816 5815 5815 5816 5816 5816 5816 5817 5817 5818 5818 5818 5819 5819 5819 5818
Wind_Speed
8 8 8 8 8 8 8 8 9 8 8 8 8 9 8 7 6 6 5 5 5 4 4 4 3 2 2 2 2 2 2 3 3 3 4 4 3 4 5 5 5 5 5
8 8 8 8 8 8 8 9 9 8 8 8 8 8 8 7 6 5 5 5 4 4 4 4 4 3 2 2 3 2 2 3 3 4 4 4 4 4 5 6 6 6 5
8 8 8 8 7 8 8 9 9 9 8 8 8 8 8 7 7 5 5 4 4 4 4 4 4 3 3 3 3 3 3 3 3 4 5 6 6 5 6 7 7 6 5
8 8 7 7 7 7 8 8 9 9 8 8 8 8 8 8 7 6 5 4 4 4 4 4 4 4 4 4 4 4 4 4 4 4 5 6 7 6 7 8 7 7 6
7 7 7 7 7 7 7 8 8 8 8 8 7 7 7 7 7 6 5 4 4 5 5 4 4 4 4 5 5 5 5 5 5 4 4 5 6 7 7 8 8 7 6
7 6 7 7 7 7 7 7 8 8 8 8 7 7 7 7 8 8 6 5 4 5 5 5 5 4 5 5 5 5 5 5 5 5 6 6 6 6 6 7 7 8 7
6 6 6 7 7 6 7 7 8 8 8 8 8 7 7 7 8 8 7 6 5 6 6 5 5 5 6 5 5 5 5 5 5 5 6 6 5 5 5 6 6 7 7
7 6 7 7 7 7 7 7 8 8 8 8 8 8 7 8 8 8 8 7 6 6 6 6 5 6 6 6 5 5 4 4 4 5 6 5 4 5 5 6 7 8 8
6 6 6 7 7 7 7 8 8 9 9 9 8 8 8 8 8 8 8 7 6 6 6 6 6 5 5 5 5 5 5 5 5 5 6 5 4 4 6 7 7 8 8
6 7 7 7 7 7 7 7 8 8 9 9 9 9 8 8 8 8 8 8 7 7 7 6 6 5 5 5 5 5 5 4 3 4 5 5 5 5 6 7 8 8 7
7 7 7 7 7 7 7 8 8 9 9 10 10 9 9 9 9 9 8 9 8 7 7 7 6 6 6 6 6 6 5 5 4 4 4 5 6 6 6 7 8 8 8
7 8 7 7 7 7 8 8 9 9 10 10 10 9 9 9 9 8 8 9 8 8 8 8 7 7 7 7 7 6 5 5 5 5 5 6 6 6 7 8 8 9 10
7 8 8 8 8 8 8 9 9 10 10 10 10 10 9 9 9 8 8 8 9 8 8 8 7 7 8 7 7 6 6 6 6 6 7 8 7 8 8 9 9 9 10
8 8 9 9 9 9 9 10 10 10 11 11 10 10 10 9 9 8 9 9 9 9 9 9 8 9 8 8 8 8 8 8 7 7 8 8 8 8 8 9 9 9 10
8 8 8 9 9 10 10 10 11 11 12 11 11 11 10 10 9 9 9 9 9 9 9 9 9 10 10 9 9 9 10 10 9 9 9 9 9 9 9 9 10 10 10
9 9 9 10 9 10 11 11 11 12 12 11 11 11 11 10 10 10 10 10 10 10 10 10 10 10 10 10 10 10 10 10 11 10 10 10 11 11 11 10 11 11 11
10 10 11 11 10 10 11 11 11 12 11 11 11 12 12 11 11 11 11 10 10 10 10 10 11 10 11 11 12 12 11 11 12 12 12 11 12 12 12 12 12 12 12
10 11 11 11 11 11 11 11 12 12 12 11 12 13 13 13 12 12 12 12 11 11 11 11 11 11 12 12 12 12 13 13 13 12 13 13 13 13 13 13 13 13 13
11 11 11 11 11 12 12 12 13 13 12 12 13 13 13 13 12 12 13 13 12 12 12 12 12 13 13 13 14 14 14 14 14 13 14 14 14 14 14 14 14 14 15
11 11 12 12 11 12 13 13 13 13 14 14 13 13 13 14 13 12 13 13 13 13 13 13 14 14 15 15 14 14 14 14 14 14 14 14 14 14 14 14 15 16 16
12 12 12 13 12 12 13 13 14 14 15 15 14 14 14 15 14 13 13 14 14 14 15 15 15 15 15 15 15 15 16 16 16 16 15 16 16 15 15 15 15 16 17
13 13 13 14 14 13 14 14 14 14 15 15 15 14 14 15 15 15 15 15 16 16 15 15 15 15 16 16 16 16 16 16 16 17 17 17 17 17 16 16 16 16 16
14 14 15 14 14 14 14 14 15 14 15 15 15 14 14 15 15 15 16 16 16 16 16 16 16 16 16 16 17 17 17 17 17 17 18 18 18 18 17 16 16 17 18
14 15 15 15 15 15 15 15 15 15 15 15 15 15 15 15 15 16 16 16 16 17 17 17 17 17 17 17 18 18 18 18 18 18 19 19 19 19 18 18 18 18 18
15 15 16 16 16 16 16 15 14 15 15 16 16 15 16 16 16 16 17 17 17 18 17 17 18 18 18 18 18 19 19 18 19 19 19 20 19 19 18 17 18 18 18
16 16 17 17 17 16 16 16 15 16 17 17 16 16 16 17 17 17 17 18 18 18 18 19 19 19 19 19 19 19 19 19 20 20 19 19 20 19 18 17 18 18 18
Wind_Direction
23 21 25 24 24 29 30 29 28 26 21 14 11 8 7 7 4 2 358 354 353 351 347 344 341 330 309 301 290 277 241 227 228 230 232 231 222 214 216 214 214 217 219
20 19 21 20 21 25 24 23 22 20 16 10 7 3 1 2 358 354 350 348 347 342 341 338 334 327 317 299 288 274 253 247 247 239 237 232 225 220 214 214 211 212 213
11 10 13 15 17 19 20 18 17 15 12 8 4 359 0 360 356 351 349 346 345 339 334 331 336 319 308 298 286 279 262 243 247 239 237 232 232 224 221 219 214 211 211
1 2 6 12 13 13 14 15 14 11 8 3 359 357 356 357 355 347 344 341 341 334 331 331 333 322 309 294 287 288 274 265 255 248 245 231 226 223 221 219 221 217 216
353 357 358 3 6 9 12 11 10 8 5 360 356 354 353 352 350 345 334 332 334 330 326 322 318 315 307 299 292 293 280 270 267 257 243 234 236 231 229 220 218 216 217
352 359 356 356 1 5 5 6 4 2 1 358 353 350 347 345 344 339 330 324 323 323 320 317 312 313 308 305 295 293 289 271 263 252 242 238 234 233 236 226 216 216 217
351 354 354 352 356 357 357 358 0 359 357 354 348 345 342 339 337 336 328 319 320 317 315 313 308 309 307 308 303 302 297 285 271 257 242 235 241 240 232 226 222 219 218
352 350 351 351 355 355 351 351 353 353 351 350 346 342 339 336 333 331 327 316 313 315 311 306 302 300 303 303 301 299 290 274 268 253 234 245 251 239 231 231 234 231 236
350 351 348 349 348 346 347 348 350 351 348 346 344 340 335 331 329 327 325 320 312 307 303 300 298 296 294 293 293 293 293 273 258 237 233 242 247 253 242 235 236 235 236
347 348 349 350 347 343 342 343 344 345 343 341 338 337 332 328 326 323 322 321 313 309 305 299 293 288 285 288 289 290 292 286 258 243 238 236 240 241 240 235 233 230 233
346 347 348 349 346 344 343 340 339 339 337 335 334 333 330 327 322 318 315 315 311 308 305 300 293 286 284 283 278 274 276 278 274 258 251 247 242 242 239 236 234 232 235
348 347 343 339 337 338 339 336 334 334 333 331 331 330 328 323 315 309 308 304 306 305 304 302 294 283 279 272 269 270 275 277 274 269 258 255 250 249 248 246 244 237 235
343 339 333 328 324 322 327 332 328 329 329 327 327 330 329 324 315 306 300 299 302 300 296 295 295 284 273 271 270 272 275 273 267 263 257 255 259 256 255 256 255 242 239
333 334 333 325 322 322 325 328 326 323 324 324 323 323 326 321 317 309 299 297 296 293 289 285 285 282 276 271 268 267 269 268 268 264 264 262 261 259 257 257 257 254 246
326 328 328 323 320 320 321 322 322 324 320 320 321 322 323 318 312 307 301 296 295 296 292 285 280 279 272 267 266 265 264 265 266 266 266 266 264 260 258 260 260 259 251
321 322 318 314 312 314 315 318 319 320 316 315 318 320 322 319 310 301 298 297 293 292 289 287 282 277 270 264 261 262 263 262 263 264 267 266 264 262 258 262 263 261 251
316 315 314 308 306 307 308 310 313 315 309 310 313 317 319 317 310 303 296 297 295 291 286 283 278 276 271 268 265 263 263 261 261 260 263 264 265 264 260 259 260 258 253
312 311 310 304 300 302 302 302 306 308 306 308 309 310 313 315 309 304 298 295 293 289 284 280 277 274 274 272 266 263 264 262 262 263 263 263 264 263 261 258 256 254 251
308 308 308 305 298 297 297 298 301 304 306 306 305 305 306 311 309 305 301 297 291 287 284 280 278 275 275 272 267 264 264 262 262 264 262 261 261 261 260 258 253 252 252
303 306 308 306 300 296 296 298 298 301 302 302 301 301 302 304 304 302 300 296 293 289 287 282 278 273 272 272 270 266 263 263 261 261 261 259 258 259 258 258 255 254 254
297 300 305 304 297 296 297 299 298 297 299 298 295 297 299 302 302 298 298 297 295 292 288 282 278 273 270 269 266 264 261 262 262 259 259 258 258 258 257 257 257 255 255
291 293 299 302 298 297 296 297 295 296 300 297 295 295 298 305 303 304 300 297 295 293 288 283 279 275 269 266 263 263 262 261 261 259 260 259 258 258 257 257 255 253 253
288 289 292 298 300 298 296 294 294 298 298 297 296 295 297 300 304 302 301 296 293 291 287 284 281 277 272 268 266 265 264 264 261 260 260 260 259 259 259 258 257 255 253
286 285 286 291 294 300 299 297 296 298 301 300 299 296 296 298 300 302 300 297 293 290 287 284 280 277 273 271 268 266 265 264 262 260 260 260 260 259 261 259 256 257 256
286 287 287 286 290 293 296 300 298 302 303 301 299 292 291 292 295 297 295 296 294 291 288 284 280 276 273 272 270 268 266 264 264 263 261 259 258 259 259 257 256 259 257
284 286 286 287 290 291 293 300 302 303 303 302 301 294 291 289 291 291 290 293 293 290 289 285 280 277 274 273 272 269 266 264 265 264 264 261 257 257 257 255 258 259 258